User: anonymous   Login
Location: Honolulu
(21.3069°N, 157.8583°W)
Time: 15:49:39
(UTC-10:00)
Language:

ISS - Orbit

View from above orbital plane
View from above orbital plane
View from above satellite
View from above satellite

Ground track
Ground track

The orbit data is extracted from the following two-line orbital elements,

1 25544U 98067A   25188.82582176  .00007346  00000-0  13458-3 0  9997
2 25544  51.6366 204.7716 0002141 348.1048   7.5113 15.50422679518352
Epoch (UTC): 07 July 2025 19:49:11
Eccentricity: 0.0002141
inclination: 51.6366°
perigee height: 414 km
apogee height: 417 km
right ascension of ascending node: 204.7716°
argument of perigee: 348.1048°
revolutions per day: 15.50422679
mean anomaly at epoch: 7.5113°
orbit number at epoch: 51835

The dashed part of the orbit path shows where the satellite is in the earth's shadow,  

DLR